Regional Weather Roundup
Issued by NWS Grand Forks, ND

Home | Current Version | Previous Version | Text Only | Print | Product List | Glossary Off
Versions: 1 2 3 4 5 6 7 8 9 10 11 12 13 14 15 16 17 18 19 20 21 22 23 24 25 26 27 28 29 30 31 32 33 34 35 36 37 38 39 40 41 42 43 44 45 46 47 48 49 50

000
ASUS43 KFGF 220631
RWRFGF
PRAIRIE TO PINES  WEATHER ROUNDUP
NATIONAL WEATHER SERVICE EASTERN NORTH DAKOTA/GRAND FORKS ND
1200 AM CST MON JAN 22 2018

 **SATELLITE DATA USED TO AUGMENT SKY COVER AT AUTOMATED STATIONS**
 *****  WEATHER ACROSS EASTERN NORTH DAKOTA  *****

CITY           SKY/WX    TMP DP  RH WIND       PRES   REMARKS
GRAND FORKS    CLOUDY    24  21  88 N3        30.12R
6HR MIN TEMP:  24; 6HR MAX TEMP:  25;

GRAND FRKS AFB CLOUDY    23  20  90 CALM      30.11S
DEVILS LAKE    CLOUDY    21  20  96 CALM      30.08S
6HR MIN TEMP:  21; 6HR MAX TEMP:  23; 6HR PCP: TRACE;

FARGO          CLOUDY    26  23  88 N10       30.08F WCI  16
WAHPETON ARPT  CLOUDY    27  23  86 N10       30.03F WCI  17
$$

 ***** WEATHER ACROSS CENTRAL AND WESTERN NORTH DAKOTA  *****

CITY           SKY/WX    TMP DP  RH WIND       PRES   REMARKS
BISMARCK       FOG       15  15 100 E5        30.05F VSB 1/4 WCI   8
6HR MIN TEMP:  13; 6HR MAX TEMP:  23;

MINOT          FAIR      16  12  84 S3        30.01S
6HR MIN TEMP:  15; 6HR MAX TEMP:  28;

JAMESTOWN      CLOUDY    25  22  88 E6        30.06S WCI  18
6HR MIN TEMP:  25; 6HR MAX TEMP:  26;

MINOT AFB      FAIR       9   6  87 CALM      30.00S
GARRISON         N/A      6   3  87 CALM      30.01F
WILLISTON      FAIR      15  11  83 SW7       30.02S WCI   5
6HR MIN TEMP:  10; 6HR MAX TEMP:  27;

DICKINSON      FAIR      17  14  88 W6        29.98S WCI   9
6HR MIN TEMP:  16; 6HR MAX TEMP:  26;

HETTINGER      FAIR      16  13  88 W5        30.01F WCI   9
6HR MIN TEMP:  14; 6HR MAX TEMP:  27;

$$

 *****  OTHER AIRPORT OBSERVATIONS IN OUR AREA  *****

CITY           SKY/WX    TMP DP  RH WIND       PRES   REMARKS
WALHALLA       FAIR      21  21 100 CALM      30.12S
GRAFTON AIRPOR NOT AVBL
VALLEY CITY AR NOT AVBL
CANDO          CLOUDY    21  21 100 S6        30.09F FOG     WCI  14
CAVALIER APRT    N/A     21  21 100 CALM      30.13S
GWINNER          N/A     23  23 100 N15       30.04F FOG     WCI  10
SHEYENNE NWR     N/A     24  24 100 NE10      29.95  WCI  14
ROLLA          FOG       19  19 100 MISG      30.05F VSB 1/4
 ***** THE ABOVE OBSERVATIONS ARE NON NWS ARE NOT QUALITY
       CONTROLLED AND MAY MIS-REPORT RAIN FOR SNOW...
$$

  *****  WEATHER ACROSS NORTHERN MINNESOTA  *****

CITY           SKY/WX    TMP DP  RH WIND       PRES   REMARKS
FLAG ISLAND    CLOUDY    21  19  93 NE3       30.11F FOG
WARROAD        CLOUDY    25  19  80 CALM      30.11F
ROSEAU         CLOUDY    25  19  80 N5        30.11F WCI  19
HALLOCK        CLOUDY    23  19  86 CALM      30.12F
THF RVR FALLS  CLOUDY    23  22  96 NE6       30.10F WCI  16
6HR MIN TEMP:  23; 6HR MAX TEMP:  24;

BAUDETTE       CLOUDY    25  24  96 CALM      30.09S
6HR MIN TEMP:  25; 6HR MAX TEMP:  26;

WASKISH        CLOUDY    27  25  93 CALM      30.08F
CROOKSTON      MOCLDY    25  23  93 NE3       30.11F
STEPHEN NDAWN    N/A     21  19  93 N3          N/A
GREENBUSH NDAW   N/A     21  19  93 NE1         N/A
$$
  *****  WEATHER ACROSS CENTRAL AND WEST MINNESOTA  *****

CITY           SKY/WX    TMP DP  RH WIND       PRES   REMARKS
FOSSTON        CLOUDY    23  21  93 NE5       30.08F WCI  17
BEMIDJI        CLOUDY    25  24  97 N3        30.05F
6HR MIN TEMP:  24; 6HR MAX TEMP:  25;

PARK RAPIDS    CLOUDY    25  22  88 NE8       30.03S FOG     WCI  16
6HR MIN TEMP:  25; 6HR MAX TEMP:  27;

ELBOW LAKE     CLOUDY    26  24  96 E10       29.99F WCI  15
6HR MIN TEMP:  25; 6HR MAX TEMP:  30;

WADENA         CLOUDY    25  25 100 NE9       30.00F FOG     WCI  15
DETROIT LAKES  CLOUDY    27  27 100 NE9       30.03F WCI  17
MOORHEAD       CLOUDY    25  21  86 NE10      30.08F WCI  15
FERGUS FALLS   CLOUDY    27  25  93 NE7       30.01F WCI  19
MORRIS MN      FAIR      25  23  93 N10       29.97F FOG     WCI  15
STAPLES        CLOUDY    25  25 100 NE10      29.99F FOG     WCI  15
$$
  *****  WEATHER ELSEWHERE ACROSS MINNESOTA  *****

CITY           SKY/WX    TMP DP  RH WIND       PRES   REMARKS
DULUTH         LGT SNOW  28  26  92 E14       30.02F VSB 1   WCI  17
6HR MIN TEMP:  28; 6HR MAX TEMP:  30; 6HR PCP:  0.02;

INTRNTL FALLS  CLOUDY    23  20  88 NE7       30.10R WCI  15
6HR MIN TEMP:  23; 6HR MAX TEMP:  27;

ELY            CLOUDY    25  25 100 NE5       30.07S FOG     WCI  19
CLOQUET        LGT SNOW  28  27  93 E10G18    30.01F WCI  19
WHEATON        CLOUDY    25  23  93 N13       30.04F WCI  13
BRAINERD       CLOUDY    27  24  89 NE14      30.02S WCI  16
6HR MIN TEMP:  26; 6HR MAX TEMP:  31;

HIBBING        CLOUDY    26  24  92 NE3       30.04F FOG
6HR MIN TEMP:  25; 6HR MAX TEMP:  26; 6HR PCP: TRACE;

ALEXANDRIA     CLOUDY    24  23  96 NE13      29.97F FOG     WCI  12
6HR MIN TEMP:  24; 6HR MAX TEMP:  32;

SAINT CLOUD    CLOUDY    29  25  85 N6        29.96F WCI  23
6HR MIN TEMP:  29; 6HR MAX TEMP:  34;

MINNEAPOLIS    CLOUDY    35  30  82 N12       29.92F
6HR MIN TEMP:  35; 6HR MAX TEMP:  37;

$$

  *****  WEATHER ACROSS SOUTH DAKOTA  *****

CITY           SKY/WX    TMP DP  RH WIND       PRES   REMARKS
SIOUX FALLS    LGT SNOW  32  30  92 NE24G32   29.82F FOG     WCI  19
6HR MIN TEMP:  32; 6HR MAX TEMP:  36; 6HR PCP: TRACE;

BROOKINGS      LGT SNOW  28  25  86 NE17G23   29.88F FOG     WCI  16
WATERTOWN      CLOUDY    24  23  96 N18G24    29.92F WCI  10
6HR MIN TEMP:  24; 6HR MAX TEMP:  32;

HURON          CLOUDY    26  25  96 N14       29.95F WCI  14
6HR MIN TEMP:  26; 6HR MAX TEMP:  31;

SISSETON         N/A     25  23  92 N16       30.02F WCI  12
ABERDEEN       CLOUDY    25  24  96 NE13      30.02F WCI  14
6HR MIN TEMP:  25; 6HR MAX TEMP:  30;

MITCHELL       LGT SNOW  31  30  96 N22       29.89F FOG     WCI  18
PIERRE         FAIR      27  25  92 N13       29.97S WCI  16
6HR MIN TEMP:  27; 6HR MAX TEMP:  32;

MOBRIDGE       FAIR      21  18  88 NE6       29.98S WCI  13
RAPID CITY     FAIR      29  21  72 N18       29.98S WCI  16
6HR MIN TEMP:  29; 6HR MAX TEMP:  32;

$$

  *****  SOME WEATHER IN NEARBY STATES *****

CITY           SKY/WX    TMP DP  RH WIND       PRES   REMARKS
GLASGOW MT     FAIR      11   8  88 E10       29.99F WCI  -3
6HR MIN TEMP:   8; 6HR MAX TEMP:  23;

GREAT FALLS MT FAIR      31  12  45 S17       29.91S WCI  19
6HR MIN TEMP:  29; 6HR MAX TEMP:  33;

CHEYENNE WY    MOCLDY    19  12  74 NW18G28   29.92R WCI   4
6HR MIN TEMP:  19; 6HR MAX TEMP:  20; 6HR PCP: TRACE;

SCOTTSBLUFF NE CLOUDY    27  20  75 NW21      29.95F WCI  13
6HR MIN TEMP:  27; 6HR MAX TEMP:  28; 6HR PCP: TRACE;

OMAHA NE       DRIZZLE   37  36  96 N13G24    29.60F FOG
6HR MIN TEMP:  37; 6HR MAX TEMP:  39; 6HR PCP:  0.15;

DES MOINES IA  RAIN      39  38  96 NE16      29.61F FOG
6HR MIN TEMP:  39; 6HR MAX TEMP:  41; 6HR PCP:  0.39;

DAVENPORT IA   FOG       44  42  93 E12       29.71F VSB 1/4
6HR MIN TEMP:  41; 6HR MAX TEMP:  44; 6HR PCP: TRACE;

CHICAGO IL     FOG       43  43 100 SE3       29.81F VSB 1/8
6HR MIN TEMP:  41; 6HR MAX TEMP:  44; 6HR PCP: TRACE;

EAU CLAIRE WI  CLOUDY    37  30  75 NE8       29.91F
6HR MIN TEMP:  35; 6HR MAX TEMP:  37;

LA CROSSE WI   CLOUDY    40  34  79 NE10      29.84F HAZE
6HR MIN TEMP:  35; 6HR MAX TEMP:  42; 6HR PCP: TRACE;

$$

  *****  SOME NATIONAL WEATHER *****

CITY           SKY/WX    TMP DP  RH WIND       PRES   REMARKS
LA GUARDIA NY  LGT RAIN  41  33  73 NE7       30.15F
6HR MIN TEMP:  41; 6HR MAX TEMP:  50; 6HR PCP: TRACE;

RALEIGH NC     FAIR      42  39  89 CALM      30.21F
6HR MIN TEMP:  42; 6HR MAX TEMP:  54;

ATLANTA GA     CLOUDY    52  43  71 SE3       30.16F
6HR MIN TEMP:  51; 6HR MAX TEMP:  61;

NEW ORLEANS LA MOCLDY    62  61  96 SE9       30.01F
6HR MIN TEMP:  62; 6HR MAX TEMP:  67;

OKLAHOMA CITY  FAIR      43  27  53 W20G29    29.74R
6HR MIN TEMP:  43; 6HR MAX TEMP:  64;

ALBUQUERQUE NM FAIR      31  10  41 N10G30    30.10R WCI  22
6HR MIN TEMP:  31; 6HR MAX TEMP:  38;

SALT LAKE CITY FAIR      26  19  74 SE8       30.29S WCI  18
6HR MIN TEMP:  26; 6HR MAX TEMP:  33;

LOS ANGELES CA FAIR


USA.gov is the U.S. government's official web portal to all federal, state and local government web resources and services.